(105367) = 2000 QO123

Discovered at Socorro on 2000-08-25 by LINEAR.

Orbit

Orbit type: Main Belt

Note: WebGL enabled browser required.

epoch2024-03-31.0
epoch JD2460400.5
perihelion date2019-12-03.97588
perihelion JD2458821.47588
argument of perihelion (°)193.61276
ascending node (°)191.39698
inclination (°)11.79139
eccentricity0.2859202
perihelion distance (AU)2.0237040
Tisserand w.r.t. Jupiter3.2
ΔV w.r.t. Earth (km/sec)9.7
semimajor axis (AU)2.8340027
mean anomaly (°)326.20621
mean daily motion (°/day)0.20658720
aphelion distance (AU)3.644
period (years)4.77
P-vector [x]0.90721734
P-vector [y]0.40255038
P-vector [z]0.12210602
Q-vector [x]-0.41871960
Q-vector [y]0.89201143
Q-vector [z]0.17026305
absolute magnitude15.31
phase slope0.15
uncertainty0
referenceMPEC 2024-E50
observations used1021
oppositions17
arc length (days)10624
first opposition used1994
last opposition used2023
residual rms (arc-secs)0.67
perturbers coarse indicatorM-v
perturbers precise indicator003Ek
first observation date used1994-06-07.0
last observation date used2023-07-09.0
computer nameMPCLINUX
JD of orbit computation2456966.900768
perihelion JD uncertainty (days)4.4138E-05
argument of perihelion uncertainty (°)1.8960E-05
ascending node uncertainty (°)1.7127E-05
inclination uncertainty (°)4.0523E-06
eccentricity uncertainty 4.2167E-08
perihelion distance uncertainty (AU)1.2483E-07
Minimum Orbit Intersection Distances (in AU)
for orbit epoch: 2460400.5, reference: E2024-E50
Mercury1.68761
Venus1.29893
Earth1.02913
Mars0.60075
Jupiter1.80779
Saturn6.01706
Uranus14.9073
Neptune27.0105

Observations

1045 total observations over interval: 1994 06 07.19032 – 2023 07 09.342747
These data are available for download (format description).

Date (UT) J2000 RA J2000 Dec Magn Location Ref
1994 06 07.19032 15 33 20.48 -06 35 08.1 20.7 V 691 – Steward Observatory, Kitt Peak-Spacewatch MPS 79726
1994 06 07.21338 15 33 19.47 -06 35 04.5 20.3 V 691 – Steward Observatory, Kitt Peak-Spacewatch MPS 79726
1994 06 07.23666 15 33 18.46 -06 35 00.9 20.1 V 691 – Steward Observatory, Kitt Peak-Spacewatch MPS 79726
2000 08 25.33476 01 28 33.74 +12 43 46.7 19.0   704 – Lincoln Laboratory ETS, New Mexico MPS 18264
2000 08 25.34751 01 28 34.15 +12 43 43.2 18.8   704 – Lincoln Laboratory ETS, New Mexico MPS 18264
2000 08 25.36027 01 28 34.58 +12 43 41.0 19.1   704 – Lincoln Laboratory ETS, New Mexico MPS 18264
2000 08 25.37302 01 28 34.84 +12 43 37.8 18.8   704 – Lincoln Laboratory ETS, New Mexico MPS 18264
2000 08 25.38590 01 28 35.26 +12 43 36.3 18.8   704 – Lincoln Laboratory ETS, New Mexico MPS 18264
2000 09 01.34586 01 31 27.55 +12 12 16.1 18.4   704 – Lincoln Laboratory ETS, New Mexico MPS 18264
2000 09 01.35958 01 31 27.79 +12 12 12.1 18.4   704 – Lincoln Laboratory ETS, New Mexico MPS 18264
2000 09 01.37317 01 31 27.97 +12 12 07.4 18.6   704 – Lincoln Laboratory ETS, New Mexico MPS 18264
2000 09 01.38773 01 31 28.23 +12 12 02.4 17.6   704 – Lincoln Laboratory ETS, New Mexico MPS 18264
2000 09 01.40200 01 31 28.45 +12 11 58.0 17.8   704 – Lincoln Laboratory ETS, New Mexico MPS 18264
2000 09 02.33361 01 31 45.38 +12 06 42.4 18.1   704 – Lincoln Laboratory ETS, New Mexico MPS 18264
2000 09 02.34684 01 31 45.56 +12 06 37.8 18.3   704 – Lincoln Laboratory ETS, New Mexico MPS 18264
2000 09 02.35991 01 31 45.81 +12 06 34.1 18.6   704 – Lincoln Laboratory ETS, New Mexico MPS 18264
2000 09 02.37301 01 31 46.00 +12 06 28.9 19.1   704 – Lincoln Laboratory ETS, New Mexico MPS 18264
2000 09 02.38611 01 31 46.22 +12 06 24.0 18.6   704 – Lincoln Laboratory ETS, New Mexico MPS 18264
2000 09 04.32313 01 32 16.23 +11 54 36.6 18.0 R 699 – Lowell Observatory-LONEOS MPS 19372
2000 09 04.34884 01 32 16.55 +11 54 26.6   699 – Lowell Observatory-LONEOS MPS 19372
2000 09 04.37467 01 32 16.85 +11 54 17.2   699 – Lowell Observatory-LONEOS MPS 19372
2000 09 04.40050 01 32 17.14 +11 54 07.3   699 – Lowell Observatory-LONEOS MPS 19372
2000 09 05.32097 01 32 29.07 +11 48 07.0 18.1   704 – Lincoln Laboratory ETS, New Mexico MPS 18264
2000 09 05.33402 01 32 29.15 +11 48 01.6 18.7   704 – Lincoln Laboratory ETS, New Mexico MPS 18264
2000 09 05.34707 01 32 29.29 +11 47 56.6 19.2   704 – Lincoln Laboratory ETS, New Mexico MPS 18264
2000 09 05.36023 01 32 29.40 +11 47 51.7 18.7   704 – Lincoln Laboratory ETS, New Mexico MPS 18264
2000 09 05.37331 01 32 29.58 +11 47 45.8 18.7   704 – Lincoln Laboratory ETS, New Mexico MPS 18264
2000 09 23.40600 01 31 30.85 +09 02 23.9 17.2 R 699 – Lowell Observatory-LONEOS MPS 30074
2000 09 23.42137 01 31 30.53 +09 02 13.2   699 – Lowell Observatory-LONEOS MPS 30074
2000 09 23.43675 01 31 30.23 +09 02 02.8   699 – Lowell Observatory-LONEOS MPS 30074
2000 09 23.45218 01 31 29.91 +09 01 52.2   699 – Lowell Observatory-LONEOS MPS 30074
2000 09 24.40383 01 31 12.52 +08 50 50.9 17.8   704 – Lincoln Laboratory ETS, New Mexico MPS 19372
2000 09 24.41831 01 31 12.20 +08 50 41.1 18.0   704 – Lincoln Laboratory ETS, New Mexico MPS 19372
2000 09 24.43272 01 31 11.91 +08 50 31.3 17.9   704 – Lincoln Laboratory ETS, New Mexico MPS 19372
2000 09 24.44714 01 31 11.59 +08 50 20.8 18.1   704 – Lincoln Laboratory ETS, New Mexico MPS 19372
2000 09 24.46157 01 31 11.30 +08 50 10.7 18.3   704 – Lincoln Laboratory ETS, New Mexico MPS 19372
2000 09 27.26076 01 30 13.23 +08 16 41.2 17.2   704 – Lincoln Laboratory ETS, New Mexico MPS 19372
2000 09 27.27585 01 30 12.83 +08 16 30.4 17.1   704 – Lincoln Laboratory ETS, New Mexico MPS 19372
2000 09 27.29093 01 30 12.47 +08 16 18.7 17.9   704 – Lincoln Laboratory ETS, New Mexico MPS 19372
2000 09 27.30602 01 30 12.08 +08 16 08.4 17.7   704 – Lincoln Laboratory ETS, New Mexico MPS 19373
2000 09 27.32110 01 30 11.66 +08 15 56.9 17.2   704 – Lincoln Laboratory ETS, New Mexico MPS 19373
2000 09 28.41558 01 29 45.75 +08 02 27.4 17.6 V 691 – Steward Observatory, Kitt Peak-Spacewatch MPS 19373
2000 09 28.43655 01 29 45.19 +08 02 11.7 17.6 V 691 – Steward Observatory, Kitt Peak-Spacewatch MPS 19373
2000 09 28.45757 01 29 44.62 +08 01 56.0 17.6 V 691 – Steward Observatory, Kitt Peak-Spacewatch MPS 19373
2000 10 01.25685 01 28 33.29 +07 26 31.8 17.5   704 – Lincoln Laboratory ETS, New Mexico MPS 19373
2000 10 01.27197 01 28 32.83 +07 26 19.8 17.5   704 – Lincoln Laboratory ETS, New Mexico MPS 19373
2000 10 01.28708 01 28 32.39 +07 26 08.0 17.6   704 – Lincoln Laboratory ETS, New Mexico MPS 19373
2000 10 01.31335 01 28 31.60 +07 25 47.7 17.4   704 – Lincoln Laboratory ETS, New Mexico MPS 19373
2000 10 01.32848 01 28 31.13 +07 25 36.1 17.7   704 – Lincoln Laboratory ETS, New Mexico MPS 19373
2000 10 02.37455 01 28 02.08 +07 12 05.9 17.2   704 – Lincoln Laboratory ETS, New Mexico MPS 19373
2000 10 02.38950 01 28 01.60 +07 11 53.9 17.7   704 – Lincoln Laboratory ETS, New Mexico MPS 19373
2000 10 02.40497 01 28 01.12 +07 11 42.2 17.8   704 – Lincoln Laboratory ETS, New Mexico MPS 19373
2000 10 02.41990 01 28 00.68 +07 11 29.9 17.7   704 – Lincoln Laboratory ETS, New Mexico MPS 19373
2000 10 02.43491 01 28 00.26 +07 11 18.1 17.6   704 – Lincoln Laboratory ETS, New Mexico MPS 19373
2000 10 03.32019 01 27 35.09 +06 59 47.4 17.5   704 – Lincoln Laboratory ETS, New Mexico MPS 19373
2000 10 03.33539 01 27 34.60 +06 59 35.7 18.1   704 – Lincoln Laboratory ETS, New Mexico MPS 19373
2000 10 03.35149 01 27 34.06 +06 59 22.9 18.0   704 – Lincoln Laboratory ETS, New Mexico MPS 19373
2000 10 03.36605 01 27 33.64 +06 59 11.9 18.0   704 – Lincoln Laboratory ETS, New Mexico MPS 19373
2000 10 07.29828 01 25 34.18 +06 07 06.1 16.8 R 699 – Lowell Observatory-LONEOS MPS 21011
2000 10 07.34019 01 25 32.73 +06 06 32.5   699 – Lowell Observatory-LONEOS MPS 21011
2000 10 07.38214 01 25 31.30 +06 05 59.0   699 – Lowell Observatory-LONEOS MPS 21011
2000 10 07.42416 01 25 29.83 +06 05 24.9   699 – Lowell Observatory-LONEOS MPS 21011
2000 10 29.23271 01 14 02.07 +01 29 59.4 17.3   704 – Lincoln Laboratory ETS, New Mexico MPS 21011
2000 10 29.24731 01 14 01.63 +01 29 49.9 18.1   704 – Lincoln Laboratory ETS, New Mexico MPS 21011
2000 10 29.26261 01 14 01.21 +01 29 40.8 17.7   704 – Lincoln Laboratory ETS, New Mexico MPS 21011
2000 10 29.27720 01 14 00.82 +01 29 30.9 17.4   704 – Lincoln Laboratory ETS, New Mexico MPS 21011
2000 10 29.29203 01 14 00.38 +01 29 21.9 17.4   704 – Lincoln Laboratory ETS, New Mexico MPS 21011
2000 11 02.22325 01 12 29.93 +00 49 09.8 17.0   704 – Lincoln Laboratory ETS, New Mexico MPS 21011
2000 11 02.23935 01 12 29.59 +00 49 00.9 18.3   704 – Lincoln Laboratory ETS, New Mexico MPS 21011
2000 11 02.25331 01 12 29.24 +00 48 52.3 18.1   704 – Lincoln Laboratory ETS, New Mexico MPS 21011
2000 11 02.26917 01 12 28.82 +00 48 43.7 17.8   704 – Lincoln Laboratory ETS, New Mexico MPS 21011
2000 11 02.28322 01 12 28.71 +00 48 35.3 18.5   704 – Lincoln Laboratory ETS, New Mexico MPS 21011
2000 11 20.12796 01 10 20.23 -01 13 01.4 17.7 R 699 – Lowell Observatory-LONEOS MPS 22387
2000 11 20.15131 01 10 20.34 -01 13 06.8   699 – Lowell Observatory-LONEOS MPS 22387
2000 11 20.17473 01 10 20.49 -01 13 12.4   699 – Lowell Observatory-LONEOS MPS 22387
2000 11 20.19818 01 10 20.61 -01 13 18.1   699 – Lowell Observatory-LONEOS MPS 22387
2000 11 25.14614 01 11 17.88 -01 28 32.4 17.7   704 – Lincoln Laboratory ETS, New Mexico MPS 22387
2000 11 25.16135 01 11 18.19 -01 28 33.4 19.3   704 – Lincoln Laboratory ETS, New Mexico MPS 22387
2000 11 25.17659 01 11 18.34 -01 28 35.8 19.2   704 – Lincoln Laboratory ETS, New Mexico MPS 22387
2000 11 25.19180 01 11 18.46 -01 28 38.1 18.9   704 – Lincoln Laboratory ETS, New Mexico MPS 22387
2000 11 25.20703 01 11 18.76 -01 28 41.3 18.4   704 – Lincoln Laboratory ETS, New Mexico MPS 22387
2000 12 18.10342 01 24 24.16 -01 07 45.2 18.3 R 699 – Lowell Observatory-LONEOS MPS 23783
2000 12 18.11907 01 24 24.94 -01 07 39.8   699 – Lowell Observatory-LONEOS MPS 23783
2000 12 18.13476 01 24 25.66 -01 07 36.1   699 – Lowell Observatory-LONEOS MPS 23783
2000 12 18.15958 01 24 26.90 -01 07 32.2   699 – Lowell Observatory-LONEOS MPS 23783
